Back to catalog

STARLINK-3133

AliveCommunicationsVLEO
NORAD 49416·PAYLOAD·🇺🇸 United States

Launched Nov 13, 2021 from Cape Canaveral Space Force Station

Loading…

Next Passes (next 24 hours)

TLE

FreshSource: CelesTrak SupGP

Epoch: Sep 14, 2026, 13:44 UTC

1 49416C 21104J   26257.57270833 -.00010798  00000+0 -31900-3 0  2578
2 49416  53.1590  89.0820 0001287  94.2074 116.8584 15.34400282    13

Track STARLINK-3133 in real time with AllMySat

Download on the App Store